Simultaneous Nadir Overpasses (SNOs) Predictions

Prediction of SNOs between AQUA and GOES-15 Satellite Orbit:

Table of predicted SNOs for the next 14.0 days since TLE Epoch: 1/10/2025
Index Date Time (AQUA) AQUA Lat,Lon GOES-15 Lat,Lon Distance(km) Time Diff (sec)
1 01/11/2025 10:22:31 -0.00, 61.25 0.03, 61.50 27.50 80
2 01/13/2025 22:22:53 0.04, 61.22 -0.02, 61.39 19.58 80
3 01/16/2025 10:23:24 -0.05, 61.15 0.02, 61.55 44.30 80
4 01/18/2025 10:04:17 0.97, 65.83 0.02, 61.56 486.25 80
5 01/18/2025 22:23:45 0.02, 61.12 -0.02, 61.43 34.70 80
6 01/20/2025 22:04:36 -0.94, 65.81 -0.02, 61.45 495.93 80
7 01/21/2025 10:24:12 -0.09, 61.08 0.02, 61.59 58.93 80
8 01/23/2025 10:05:02 0.88, 65.77 0.00, 61.62 471.85 80
9 01/23/2025 22:24:30 0.07, 61.06 0.00, 61.49 48.58 80
